(151318) = 2002 CH123

Discovered at Socorro on 2002-02-07 by LINEAR.

Orbit

Orbit type: Main Belt

Note: WebGL enabled browser required.

epoch2024-03-31.0
epoch JD2460400.5
perihelion date2024-02-11.26227
perihelion JD2460351.76227
argument of perihelion (°)337.40354
ascending node (°)229.59202
inclination (°)3.43552
eccentricity0.1484281
perihelion distance (AU)2.5877544
Tisserand w.r.t. Jupiter3.2
ΔV w.r.t. Earth (km/sec)10.1
semimajor axis (AU)3.0387973
mean anomaly (°)9.06810
mean daily motion (°/day)0.18605920
aphelion distance (AU)3.490
period (years)5.3
P-vector [x]-0.89051588
P-vector [y]-0.40771646
P-vector [z]-0.20186319
Q-vector [x]0.45265811
Q-vector [y]-0.83853501
Q-vector [z]-0.30324851
absolute magnitude15.62
phase slope0.15
uncertainty0
referenceMPEC 2024-F50
observations used548
oppositions18
arc length (days)8522
first opposition used2000
last opposition used2024
residual rms (arc-secs)0.72
perturbers coarse indicatorM-v
perturbers precise indicator003Ek
first observation date used2000-11-18.0
last observation date used2024-03-19.0
computer nameMPCLINUX
JD of orbit computation2456909.333374
perihelion JD uncertainty (days)7.5967E-05
argument of perihelion uncertainty (°)8.0108E-05
ascending node uncertainty (°)7.8746E-05
inclination uncertainty (°)6.4420E-06
eccentricity uncertainty 6.4564E-08
perihelion distance uncertainty (AU)1.9415E-07
Minimum Orbit Intersection Distances (in AU)
for orbit epoch: 2460400.5, reference: E2024-GD4
Mercury2.14951
Venus1.86783
Earth1.58376
Mars0.9712
Jupiter1.4786
Saturn5.70241
Uranus15.6878
Neptune26.3395

Observations

562 total observations over interval: 2000 11 18.43218 – 2024 03 19.632319
These data are available for download (format description).

Date (UT) J2000 RA J2000 Dec Magn Location Ref
2000 11 18.43218 04 10 02.44 +20 04 05.8 20.9 V 691 – Steward Observatory, Kitt Peak-Spacewatch MPS 178308
2000 11 18.45462 04 10 01.33 +20 04 01.7 21.0 V 691 – Steward Observatory, Kitt Peak-Spacewatch MPS 178308
2000 11 18.47726 04 10 00.15 +20 03 57.7 20.7 V 691 – Steward Observatory, Kitt Peak-Spacewatch MPS 178308
2002 01 13.38508 09 49 33.81 +07 57 51.8 19.4   704 – Lincoln Laboratory ETS, New Mexico MPS 55489
2002 01 13.40029 09 49 33.37 +07 57 53.1 19.7   704 – Lincoln Laboratory ETS, New Mexico MPS 55489
2002 01 13.41549 09 49 32.95 +07 57 53.9 19.8   704 – Lincoln Laboratory ETS, New Mexico MPS 55489
2002 01 13.43068 09 49 32.50 +07 57 56.0 19.5   704 – Lincoln Laboratory ETS, New Mexico MPS 55489
2002 01 13.44588 09 49 31.99 +07 57 56.4 19.3   704 – Lincoln Laboratory ETS, New Mexico MPS 55489
2002 01 19.38910 09 46 21.82 +08 07 05.8 19.5   704 – Lincoln Laboratory ETS, New Mexico MPS 55489
2002 01 19.40426 09 46 21.28 +08 07 07.3 19.7   704 – Lincoln Laboratory ETS, New Mexico MPS 55489
2002 01 19.41942 09 46 20.66 +08 07 08.7 19.8   704 – Lincoln Laboratory ETS, New Mexico MPS 55489
2002 01 19.43457 09 46 20.17 +08 07 09.9 19.8   704 – Lincoln Laboratory ETS, New Mexico MPS 55489
2002 01 19.44973 09 46 19.55 +08 07 13.5 19.9   704 – Lincoln Laboratory ETS, New Mexico MPS 55489
2002 02 05.28113 09 34 13.71 +08 55 47.5 19.0 R 699 – Lowell Observatory-LONEOS MPS 55489
2002 02 05.30649 09 34 12.43 +08 55 52.8   699 – Lowell Observatory-LONEOS MPS 55489
2002 02 05.33167 09 34 11.12 +08 55 59.8   699 – Lowell Observatory-LONEOS MPS 55489
2002 02 05.35678 09 34 09.88 +08 56 04.4   699 – Lowell Observatory-LONEOS MPS 55489
2002 02 06.35866 09 33 21.05 +08 59 47.8 20.3   644 – Palomar Mountain/NEAT MPS 52690
2002 02 06.38561 09 33 19.70 +08 59 54.2 20.3   644 – Palomar Mountain/NEAT MPS 52690
2002 02 06.40598 09 33 18.65 +08 59 58.6 20.5   644 – Palomar Mountain/NEAT MPS 52690
2002 02 07.31263 09 32 34.44 +09 03 25.0 19.3   704 – Lincoln Laboratory ETS, New Mexico MPS 50302
2002 02 07.32865 09 32 33.45 +09 03 29.0 19.7   704 – Lincoln Laboratory ETS, New Mexico MPS 50302
2002 02 07.35779 09 32 32.02 +09 03 36.3 19.6   704 – Lincoln Laboratory ETS, New Mexico MPS 50302
2002 02 07.37357 09 32 31.19 +09 03 39.5 19.9   704 – Lincoln Laboratory ETS, New Mexico MPS 50302
2002 02 11.24316 09 29 19.67 +09 18 51.0 18.9   704 – Lincoln Laboratory ETS, New Mexico MPS 50302
2002 02 11.25728 09 29 18.99 +09 18 54.8 19.9   704 – Lincoln Laboratory ETS, New Mexico MPS 50302
2002 02 11.27140 09 29 18.24 +09 18 58.1 19.2   704 – Lincoln Laboratory ETS, New Mexico MPS 50302
2002 02 11.28553 09 29 17.50 +09 19 01.6 19.3   704 – Lincoln Laboratory ETS, New Mexico MPS 50302
2002 02 11.29965 09 29 16.81 +09 19 04.9 19.7   704 – Lincoln Laboratory ETS, New Mexico MPS 50302
2002 02 16.36132 09 25 06.58 +09 39 57.1 19.8   644 – Palomar Mountain/NEAT MPS 55489
2002 02 16.38585 09 25 05.35 +09 40 03.1 19.5   644 – Palomar Mountain/NEAT MPS 55489
2002 02 16.42110 09 25 03.58 +09 40 11.9 19.4   644 – Palomar Mountain/NEAT MPS 55489
2002 02 18.93596 09 23 02.05 +09 50 46.5 19.8   209 – Asiago Observatory, Cima Ekar-ADAS MPS 65850
2002 02 18.96986 09 23 00.32 +09 50 55.3 19.6   209 – Asiago Observatory, Cima Ekar-ADAS MPS 65850
2002 02 19.00070 09 22 58.89 +09 51 02.3 19.8   209 – Asiago Observatory, Cima Ekar-ADAS MPS 65850
2002 03 05.25218 09 12 50.12 +10 49 25.2 19.4   644 – Palomar Mountain/NEAT MPS 55489
2002 03 05.27486 09 12 49.26 +10 49 30.5 19.7   644 – Palomar Mountain/NEAT MPS 55489
2002 03 05.29624 09 12 48.44 +10 49 35.3 20.4   644 – Palomar Mountain/NEAT MPS 55489
2002 03 13.15903 09 08 43.80 +11 17 44.8 19.8   704 – Lincoln Laboratory ETS, New Mexico MPS 55489
2002 03 13.17195 09 08 43.47 +11 17 46.4 20.2   704 – Lincoln Laboratory ETS, New Mexico MPS 55489
2002 03 13.18483 09 08 43.06 +11 17 49.9 19.8   704 – Lincoln Laboratory ETS, New Mexico MPS 55489
2002 03 15.11697 09 07 55.78 +11 24 01.3 19.0   704 – Lincoln Laboratory ETS, New Mexico MPS 52690
2002 03 15.12980 09 07 55.42 +11 24 02.6 19.5   704 – Lincoln Laboratory ETS, New Mexico MPS 52690
2002 03 15.14236 09 07 55.13 +11 24 05.7 19.4   704 – Lincoln Laboratory ETS, New Mexico MPS 52690
2002 03 15.15507 09 07 54.82 +11 24 08.2 19.6   704 – Lincoln Laboratory ETS, New Mexico MPS 52690
2002 03 15.16771 09 07 54.51 +11 24 10.0 19.5   704 – Lincoln Laboratory ETS, New Mexico MPS 52690
2005 10 03.41963 03 03 19.33 +18 16 21.7 21.4 V G96 – Mt. Lemmon Survey MPS 146000
2005 10 03.42617 03 03 19.15 +18 16 21.2 21.4 V G96 – Mt. Lemmon Survey MPS 146000
2005 10 03.43271 03 03 18.93 +18 16 19.9 21.2 V G96 – Mt. Lemmon Survey MPS 146000
2005 10 03.43924 03 03 18.79 +18 16 19.3 21.2 V G96 – Mt. Lemmon Survey MPS 146000
2005 10 24.25340 02 50 30.31 +17 09 57.0 20.6 V 691 – Steward Observatory, Kitt Peak-Spacewatch MPS 146000
2005 10 24.27069 02 50 29.54 +17 09 52.9 20.6 V 691 – Steward Observatory, Kitt Peak-Spacewatch MPS 146000
2005 10 24.28798 02 50 28.73 +17 09 48.9 20.2 V 691 – Steward Observatory, Kitt Peak-Spacewatch MPS 146000
2005 10 25.52089 02 49 33.02 +17 04 55.3 21.0 r 568 – Maunakea MPS 255097
2005 10 25.55309 02 49 31.50 +17 04 47.7 21.0 r 568 – Maunakea MPS 255097
2005 10 25.58778 02 49 29.90 +17 04 39.1 20.9 r 568 – Maunakea MPS 255097
2005 10 26.56063 02 48 45.55 +17 00 43.4 20.3 r 568 – Maunakea MPS 255097
2005 10 27.32980 02 48 10.29 +16 57 33.5 20.8 V G96 – Mt. Lemmon Survey MPS 149422
2005 10 27.33784 02 48 09.90 +16 57 32.1 20.9 V G96 – Mt. Lemmon Survey MPS 149422
2005 10 27.34575 02 48 09.50 +16 57 29.8 20.4 V G96 – Mt. Lemmon Survey MPS 149422
2005 10 27.35389 02 48 09.14 +16 57 28.0 20.5 V G96 – Mt. Lemmon Survey MPS 149422
2005 10 30.22792 02 45 55.29 +16 45 29.5 20.4 V 691 – Steward Observatory, Kitt Peak-Spacewatch MPS 147412
2005 10 30.24522 02 45 54.44 +16 45 25.4 20.4 V 691 – Steward Observatory, Kitt Peak-Spacewatch MPS 147412
2005 10 30.26258 02 45 53.58 +16 45 18.5 20.7 V 691 – Steward Observatory, Kitt Peak-Spacewatch MPS 147412
2005 11 05.22187 02 41 10.46 +16 19 33.8 19.6 V G96 – Mt. Lemmon Survey MPS 149422
2005 11 05.23078 02 41 10.03 +16 19 31.7 19.8 V G96 – Mt. Lemmon Survey MPS 149422
2005 11 05.23954 02 41 09.60 +16 19 29.5 19.8 V G96 – Mt. Lemmon Survey MPS 149422
2005 11 05.24859 02 41 09.16 +16 19 27.0 19.6 V G96 – Mt. Lemmon Survey MPS 149422
2005 11 06.27497 02 40 20.17 +16 14 57.1 20.2   704 – Lincoln Laboratory ETS, New Mexico MPS 149422
2005 11 06.29983 02 40 18.96 +16 14 50.8 19.6   704 – Lincoln Laboratory ETS, New Mexico MPS 149422
2005 11 06.30449 02 40 18.69 +16 14 46.9 20.3 V 703 – Catalina Sky Survey MPS 149422
2005 11 06.31231 02 40 18.34 +16 14 47.7 19.8   704 – Lincoln Laboratory ETS, New Mexico MPS 149422
2005 11 06.31254 02 40 18.37 +16 14 45.6 19.9 V 703 – Catalina Sky Survey MPS 149422
2005 11 06.32063 02 40 17.94 +16 14 43.7 19.7 V 703 – Catalina Sky Survey MPS 149422
2005 11 06.32870 02 40 17.47 +16 14 41.1 20.1 V 703 – Catalina Sky Survey MPS 149422
2006 11 01.38388 07 55 28.92 +17 50 42.6 22.2 V G96 – Mt. Lemmon Survey MPS 185319
2006 11 01.39514 07 55 29.20 +17 50 41.4 22.4 V G96 – Mt. Lemmon Survey MPS 185319
2006 11 01.40666 07 55 29.49 +17 50 38.6 20.9 V G96 – Mt. Lemmon Survey MPS 185319
2006 11 01.41822 07 55 29.89 +17 50 37.1 22.1 V G96 – Mt. Lemmon Survey MPS 185319
2007 01 19.95127 07 27 20.95 +17 21 57.8 18.2 R A24 – New Millennium Observatory, Mozzate MPS 196309
2007 02 10.23204 07 11 25.51 +17 57 01.2 20.2 V G96 – Mt. Lemmon Survey MPS 199431
2007 02 10.23877 07 11 25.26 +17 57 01.8 20.0 V G96 – Mt. Lemmon Survey MPS 199431
2007 02 10.24538 07 11 25.04 +17 57 02.3 20.0 V G96 – Mt. Lemmon Survey MPS 199431
2007 02 10.25200 07 11 24.82 +17 57 02.8 19.9 V G96 – Mt. Lemmon Survey MPS 199431
2008 03 27.40290 14 42 48.79 -17 36 35.3 19.6 V 691 – Steward Observatory, Kitt Peak-Spacewatch MPS 244507
2008 03 27.42054 14 42 48.40 -17 36 32.5 19.7 V 691 – Steward Observatory, Kitt Peak-Spacewatch MPS 244507
2008 03 27.43818 14 42 48.03 -17 36 30.1 19.7 V 691 – Steward Observatory, Kitt Peak-Spacewatch MPS 244507
2008 03 31.39548 14 41 18.18 -17 26 20.7 19.7 V 691 – Steward Observatory, Kitt Peak-Spacewatch MPS 245574
